Wind_Speed
5 5 5 4 3 3 4 5 6 7 7 8 9 9 10 10 9 12 14 15 16 16 17 18 17 16 16 17 16 15 14 11
5 4 4 2 3 3 5 6 7 9 10 10 10 9 12 9 10 13 14 15 16 18 18 19 20 19 19 18 18 18 18 16
5 3 2 3 5 5 6 6 7 8 9 9 9 11 11 13 13 14 14 16 17 18 18 19 20 22 22 21 17 18 18 19
6 4 2 3 5 7 8 9 10 11 10 9 9 9 9 11 11 11 11 15 16 13 16 15 16 17 18 16 17 19 19 14
8 6 5 3 2 5 7 10 11 12 13 11 10 9 10 10 9 11 12 11 10 12 15 15 16 17 17 19 22 19 16 7
8 7 7 4 3 5 8 11 14 14 14 13 12 11 12 12 11 12 11 12 15 14 16 17 22 20 18 20 17 19 19 15
10 8 7 4 3 4 7 11 14 16 16 18 15 13 12 12 11 10 11 13 14 17 19 20 21 23 28 27 27 29 31 30
11 9 7 5 4 5 8 11 13 14 15 19 19 17 16 15 13 12 11 15 17 17 17 18 18 20 22 25 31 30 30 28
10 9 8 6 5 4 6 9 10 12 13 14 18 18 18 17 14 12 14 17 15 16 20 18 17 18 19 21 23 28 35 35
11 10 9 7 5 5 7 9 9 11 12 13 16 17 17 17 15 14 18 17 14 16 18 22 21 20 21 22 23 24 26 30
8 9 8 6 5 5 7 9 9 10 11 13 15 16 16 16 15 14 18 16 13 16 20 22 23 23 23 23 24 26 28 29
10 9 7 5 3 3 2 3 9 8 9 14 15 15 17 17 15 16 17 17 17 19 20 22 21 23 27 27 27 26 25 26
9 8 7 5 5 4 3 5 6 6 8 13 14 17 17 16 17 17 17 19 19 17 21 23 24 24 29 30 27 16 12 19
4 5 6 6 6 3 4 4 6 10 8 11 13 17 16 16 17 19 20 22 19 18 20 22 21 21 22 25 17 26 10 11
6 6 4 6 2 1 2 5 4 5 10 9 14 15 17 17 18 18 20 21 21 20 19 18 22 22 17 12 11 10 38 18
9 7 3 5 4 2 2 2 1 5 6 10 12 11 16 17 19 20 20 21 21 21 20 21 19 21 21 13 14 23 20 26
9 5 5 4 2 1 1 1 2 3 7 11 10 13 11 13 17 22 21 20 21 21 22 23 20 19 20 22 20 21 22 29
7 6 5 4 2 2 2 3 5 7 9 10 13 13 14 14 19 22 23 23 23 23 22 21 21 22 20 20 20 22 26 29
8 8 6 4 2 2 3 4 5 7 9 11 14 14 16 18 22 23 25 23 23 23 23 22 21 22 22 25 24 22 23 28
8 6 3 2 1 1 4 5 5 5 11 13 11 13 15 19 21 24 24 24 24 23 22 22 22 23 23 25 25 25 23 23
Wind_Direction
95 100 98 77 50 20 3 347 333 325 317 312 310 310 303 309 308 290 282 280 281 282 283 286 286 287 287 289 291 289 285 280
137 134 113 61 16 351 340 331 322 311 304 300 300 293 294 302 299 299 299 294 290 286 283 285 288 287 286 286 289 291 289 284
162 146 100 62 45 42 29 12 358 341 326 321 297 293 295 289 296 294 302 295 291 291 292 290 293 293 291 288 290 298 298 288
179 168 137 110 62 30 19 8 2 353 348 338 322 319 308 312 301 314 299 290 295 314 305 295 285 293 301 298 283 290 291 285
183 179 166 148 90 14 9 4 3 356 352 355 341 328 314 307 312 297 301 310 298 268 281 292 292 271 273 273 288 291 276 278
192 192 190 193 281 353 1 357 357 355 351 358 350 339 324 324 313 313 310 302 302 303 284 269 265 264 264 257 259 270 273 272
200 202 208 225 280 345 353 357 349 350 347 345 347 345 341 331 332 332 330 324 297 295 296 287 278 269 260 262 260 257 254 254
205 214 223 242 294 336 347 348 346 343 340 338 340 344 344 344 341 344 338 301 315 323 320 310 304 295 281 268 262 262 264 263
207 218 225 236 258 300 327 334 337 334 336 337 329 339 341 344 344 340 315 323 337 331 314 309 293 288 280 280 282 274 264 264
202 214 223 236 265 291 315 324 325 328 330 326 332 334 337 339 338 338 320 334 339 323 318 305 310 304 295 284 276 272 282 277
219 216 229 245 270 300 325 336 334 336 335 319 333 331 336 337 336 326 325 328 322 306 308 314 316 316 311 301 291 281 273 272
214 224 226 236 279 333 349 333 319 337 335 320 334 336 339 340 339 327 327 324 319 322 325 321 326 318 311 309 302 298 293 285
204 232 227 218 227 259 280 295 332 329 341 332 338 338 340 342 333 332 326 324 325 328 316 326 327 332 327 315 314 313 310 297
206 219 221 215 236 280 310 341 358 18 315 344 318 332 335 337 335 333 331 327 329 326 331 330 328 332 336 336 329 326 264 272
192 216 219 236 169 230 301 54 40 242 309 331 320 338 336 337 334 333 329 332 331 331 331 327 327 331 338 326 332 312 317 309
198 193 206 245 197 241 43 73 11 319 327 308 343 332 339 336 330 326 327 324 329 328 326 324 326 325 325 322 283 286 309 312
202 195 216 226 227 223 176 283 312 332 323 328 348 320 341 334 320 319 326 324 320 320 323 325 325 318 315 315 313 307 299 293
193 176 222 224 213 263 310 328 344 336 335 348 311 337 325 321 310 323 320 321 323 325 322 321 319 317 316 311 308 305 298 296
196 174 222 238 228 284 322 330 0 337 316 310 322 325 319 316 319 321 323 326 324 322 322 320 320 316 314 311 309 303 295 298
181 183 175 228 239 296 326 345 329 330 311 323 332 311 318 317 316 318 320 323 322 322 322 321 319 316 316 315 311 309 307 301
Height
1516 1517 1517 1518 1518 1519 1518 1518 1518 1517 1517 1517 1517 1516 1516 1516 1515 1514 1514 1514 1514 1514 1514 1514 1513 1513 1512 1511 1511 1511 1510 1511
1516 1517 1517 1517 1518 1518 1517 1517 1516 1516 1515 1515 1515 1515 1514 1514 1513 1512 1512 1512 1511 1511 1511 1511 1510 1510 1510 1509 1508 1508 1508 1508
1516 1517 1517 1517 1517 1517 1516 1516 1514 1514 1513 1513 1512 1512 1512 1511 1511 1511 1510 1509 1509 1509 1508 1507 1507 1507 1506 1506 1506 1505 1505 1505
1516 1516 1517 1517 1517 1517 1516 1515 1514 1512 1511 1511 1510 1510 1509 1509 1508 1508 1507 1507 1506 1507 1506 1505 1504 1503 1502 1503 1502 1501 1501 1500
1515 1516 1517 1517 1517 1517 1517 1515 1514 1512 1511 1509 1508 1508 1507 1506 1506 1504 1505 1504 1503 1503 1502 1502 1501 1500 1499 1500 1499 1499 1498 1498
1513 1514 1515 1516 1516 1515 1515 1514 1513 1511 1509 1508 1507 1506 1504 1504 1503 1502 1502 1500 1500 1498 1497 1496 1496 1496 1496 1496 1495 1496 1496 1497
1511 1512 1513 1514 1515 1514 1514 1513 1512 1510 1508 1507 1506 1505 1504 1503 1501 1500 1500 1498 1496 1494 1493 1492 1491 1491 1491 1491 1491 1491 1491 1492
1509 1510 1512 1513 1513 1514 1513 1512 1511 1509 1508 1506 1504 1504 1502 1500 1499 1498 1498 1495 1494 1492 1490 1488 1486 1485 1484 1485 1485 1485 1485 1486
1507 1509 1510 1512 1512 1512 1511 1510 1510 1508 1507 1505 1503 1503 1500 1499 1497 1496 1494 1493 1491 1490 1487 1485 1482 1480 1478 1478 1478 1477 1478 1479
1505 1506 1508 1510 1511 1510 1510 1510 1509 1508 1507 1505 1503 1502 1500 1498 1496 1495 1492 1491 1489 1488 1485 1480 1479 1476 1474 1473 1472 1471 1471 1471
1505 1504 1506 1508 1509 1509 1508 1508 1508 1507 1506 1504 1503 1501 1499 1497 1495 1493 1491 1489 1487 1484 1482 1479 1475 1472 1469 1467 1465 1463 1463 1464
1502 1502 1504 1505 1506 1507 1507 1508 1507 1505 1505 1503 1501 1500 1497 1496 1494 1491 1489 1487 1484 1482 1479 1476 1473 1469 1464 1461 1457 1456 1455 1455
1500 1501 1502 1502 1504 1504 1503 1504 1505 1505 1503 1502 1501 1499 1496 1494 1493 1490 1487 1485 1483 1481 1477 1473 1471 1466 1460 1455 1452 1450 1451 1451
1500 1501 1500 1501 1501 1501 1502 1502 1503 1503 1503 1502 1500 1498 1496 1494 1491 1489 1486 1483 1480 1478 1475 1472 1470 1468 1463 1458 1449 1445 1443 1446
1500 1500 1498 1499 1500 1500 1500 1502 1504 1503 1502 1501 1498 1497 1495 1492 1490 1488 1485 1482 1479 1477 1475 1473 1468 1467 1467 1467 1459 1452 1444 1439
1497 1498 1498 1496 1498 1499 1499 1501 1502 1501 1501 1499 1497 1496 1493 1492 1489 1486 1485 1481 1477 1475 1473 1470 1468 1465 1465 1465 1463 1459 1453 1434
1496 1497 1496 1496 1495 1496 1497 1498 1499 1499 1499 1497 1496 1493 1492 1491 1487 1485 1482 1478 1475 1472 1470 1467 1466 1464 1462 1460 1457 1455 1453 1447
1496 1498 1496 1495 1494 1494 1494 1495 1495 1496 1494 1494 1491 1491 1490 1488 1484 1482 1479 1475 1472 1469 1467 1465 1462 1461 1459 1456 1455 1453 1450 1445
1496 1497 1496 1494 1493 1493 1493 1493 1493 1493 1492 1490 1489 1487 1485 1483 1481 1477 1474 1471 1469 1466 1464 1461 1460 1457 1455 1453 1450 1448 1446 1441
1496 1497 1496 1495 1494 1492 1492 1492 1491 1491 1489 1488 1486 1485 1483 1480 1477 1474 1470 1467 1465 1462 1460 1458 1455 1452 1450 1448 1445 1443 1440 1437